Location: B�hl
(48.6968°N, 8.1352°E)
Time: 04:37:54
(UTC+00:00)

CENTAUR R/B - Visible Passes

Search period start: 15 June 2021 00:00
Search period end: 25 June 2021 00:00
Orbit: 742 x 1446 km, 63.4° (Epoch: 09 June)

Date Brightness Start Highest point End Pass type
(mag) Time Alt. Az. Time Alt. Az. Time Alt. Az.
15 Jun 5.0 01:31:19 10° NW 01:37:53 31° NNE 01:45:14 10° E visible
15 Jun 3.1 20:57:35 10° SW 21:03:38 67° NW 21:10:55 10° NE visible
15 Jun 4.8 22:49:58 10° WNW 22:55:44 30° NNW 23:02:23 10° NE visible
16 Jun 5.1 00:42:42 10° NW 00:48:51 28° N 00:55:45 10° ENE visible
16 Jun 4.3 02:33:54 10° NW 02:41:27 50° NE 02:49:53 10° ESE visible
16 Jun 2.6 20:09:18 10° SW 20:15:15 84° SE 20:22:27 10° NE visible
16 Jun 4.4 22:00:55 10° W 22:06:48 35° NNW 22:13:41 10° NE visible
16 Jun 5.2 23:53:53 10° NW 23:59:45 26° N 00:06:22 10° ENE visible
17 Jun 4.7 01:45:33 10° NW 01:52:40 39° NNE 02:00:38 10° E visible
17 Jun 3.9 21:12:01 10° WSW 21:18:00 45° NNW 21:25:09 10° NE visible
17 Jun 5.1 23:04:55 10° WNW 23:10:40 27° N 23:17:10 10° NE visible
18 Jun 4.9 00:57:06 10° NW 01:03:45 33° NNE 01:11:14 10° E visible
18 Jun 3.3 20:23:21 10° WSW 20:29:23 62° NW 20:36:40 10° NE visible
18 Jun 4.9 22:15:51 10° WNW 22:21:36 29° NNW 22:28:13 10° NE visible
19 Jun 5.1 00:08:30 10° NW 00:14:44 28° NNE 00:21:44 10° ENE visible
19 Jun 4.1 01:59:37 10° NW 02:07:16 53° NE 02:15:47 10° ESE visible
19 Jun 4.6 21:26:48 10° W 21:32:39 34° NNW 21:39:29 10° NE visible
19 Jun 5.2 23:19:44 10° NW 23:25:39 26° N 23:32:19 10° ENE visible
20 Jun 4.5 01:11:17 10° NW 01:18:30 41° NNE 01:26:36 10° E visible
20 Jun 4.1 20:37:52 10° WSW 20:43:49 42° NNW 20:50:54 10° NE visible
20 Jun 5.1 22:30:48 10° WNW 22:36:33 26° N 22:43:05 10° NE visible
21 Jun 4.8 00:22:51 10° NW 00:29:37 34° NNE 00:37:13 10° E visible
21 Jun 3.5 02:13:39 10° NW 02:21:38 75° NE 02:30:30 10° SE visible
21 Jun 5.0 21:41:45 10° WNW 21:47:29 28° NNW 21:54:04 10° NE visible
21 Jun 5.0 23:34:18 10° NW 23:40:38 29° NNE 23:47:43 10° ENE visible
22 Jun 4.0 01:25:21 10° NW 01:33:04 56° NE 01:41:41 10° ESE visible
22 Jun 4.7 20:52:41 10° W 20:58:30 32° NNW 21:05:16 10° NE visible
22 Jun 5.1 22:45:34 10° NW 22:51:33 27° N 22:58:17 10° ENE visible
23 Jun 4.4 00:37:01 10° NW 00:44:20 44° NNE 00:52:33 10° ESE visible
23 Jun 3.2 02:27:43 10° NW 02:35:48 77° SW 02:44:40 10° SSE visible
23 Jun 5.1 21:56:41 10° WNW 22:02:27 26° N 22:09:00 10° NE visible
23 Jun 4.7 23:48:36 10° NW 23:55:29 35° NNE 00:03:11 10° E visible
24 Jun 3.4 01:39:22 10° NW 01:47:24 80° NE 01:56:18 10° SE visible
24 Jun 5.0 21:07:39 10° WNW 21:13:23 28° N 21:19:55 10° NE visible
24 Jun 4.9 23:00:05 10° NW 23:06:31 30° NNE 23:13:43 10° ENE visible
